DTR71V LIRF-LIPY

Flight info

Callsign DTR71V
Flight time 0h 51m
Altitude 18000
Route TIBER Y106 GITOD L865 ERLIT
Aircraft AT76/M-SDFGIRY/S

Departure

Time 2026-05-06 05:46
Airport Rome–Fiumicino Leonardo da Vinci International Airport (LIRF)

Arrival

Time 2026-05-06 06:37
Airport Marche Airport (LIPY)
Time Latitude Longitude Altitude Speed Heading
2026-05-06 05:20 41.80051 12.26412 11 ft 0 kts 70°
2026-05-06 05:40 41.80052 12.26414 11 ft 3 kts 70°
2026-05-06 05:40 41.80055 12.26426 11 ft 2 kts 70°
2026-05-06 05:40 41.80082 12.26454 11 ft 7 kts
2026-05-06 05:40 41.80142 12.26435 11 ft 11 kts 340°
2026-05-06 05:41 41.80218 12.26409 11 ft 12 kts 351°
2026-05-06 05:41 41.80285 12.26327 11 ft 16 kts 299°
2026-05-06 05:41 41.80326 12.26219 11 ft 12 kts 304°
2026-05-06 05:41 41.80397 12.26164 11 ft 11 kts 353°
2026-05-06 05:42 41.80476 12.26190 11 ft 12 kts 24°
2026-05-06 05:42 41.80534 12.26270 11 ft 18 kts 66°
2026-05-06 05:42 41.80587 12.26451 11 ft 20 kts 70°
2026-05-06 05:42 41.80629 12.26595 11 ft 14 kts 68°
2026-05-06 05:43 41.80660 12.26718 11 ft 13 kts 73°
2026-05-06 05:43 41.80686 12.26809 11 ft 9 kts 68°
2026-05-06 05:43 41.80713 12.26903 11 ft 18 kts 71°
2026-05-06 05:43 41.80768 12.27038 11 ft 15 kts 30°
2026-05-06 05:44 41.80859 12.27020 11 ft 9 kts 339°
2026-05-06 05:44 41.80867 12.27016 11 ft 0 kts 339°
2026-05-06 05:45 41.80904 12.26996 11 ft 10 kts 339°
2026-05-06 05:45 41.80956 12.26937 10 ft 9 kts 266°
2026-05-06 05:45 41.80904 12.26746 10 ft 51 kts 251°
2026-05-06 05:46 41.80707 12.26033 14 ft 110 kts 251°
2026-05-06 05:46 41.80394 12.24915 231 ft 134 kts 244°
2026-05-06 05:46 41.80079 12.23800 880 ft 123 kts 240°
2026-05-06 05:46 41.79741 12.22714 1370 ft 128 kts 238°
2026-05-06 05:47 41.79400 12.21572 1840 ft 143 kts 240°
2026-05-06 05:47 41.79314 12.20175 2176 ft 172 kts 285°
2026-05-06 05:47 41.80019 12.18743 2413 ft 191 kts 303°
2026-05-06 05:47 41.80568 12.17813 2697 ft 191 kts 303°
2026-05-06 05:48 41.81006 12.17057 2923 ft 190 kts 302°
2026-05-06 05:48 41.81792 12.15646 3337 ft 188 kts 300°
2026-05-06 05:48 41.82528 12.14206 3715 ft 187 kts 297°
2026-05-06 05:49 41.83222 12.12744 4116 ft 185 kts 295°
2026-05-06 05:49 41.83884 12.11269 4542 ft 184 kts 294°
2026-05-06 05:49 41.84364 12.09732 4910 ft 173 kts 265°
2026-05-06 05:49 41.83915 12.08376 5241 ft 164 kts 216°
2026-05-06 05:50 41.82818 12.08108 5578 ft 171 kts 167°
2026-05-06 05:50 41.81795 12.09008 5864 ft 180 kts 148°
2026-05-06 05:50 41.81185 12.09780 6052 ft 184 kts 139°
2026-05-06 05:50 41.80223 12.10872 6307 ft 182 kts 149°
2026-05-06 05:51 41.79236 12.11972 6605 ft 187 kts 151°
2026-05-06 05:51 41.78120 12.12806 7141 ft 182 kts 167°
2026-05-06 05:51 41.76907 12.13323 7672 ft 183 kts 170°
2026-05-06 05:51 41.75686 12.13782 8197 ft 184 kts 171°
2026-05-06 05:52 41.74437 12.14238 8754 ft 187 kts 172°
2026-05-06 05:52 41.73169 12.14700 9241 ft 190 kts 171°
2026-05-06 05:52 41.71886 12.15152 9759 ft 191 kts 172°
2026-05-06 05:52 41.70607 12.15645 10182 ft 194 kts 165°
2026-05-06 05:53 41.69370 12.16457 10546 ft 201 kts 156°
2026-05-06 05:53 41.68198 12.17515 10976 ft 204 kts 149°
2026-05-06 05:53 41.67087 12.18728 11399 ft 207 kts 146°
2026-05-06 05:53 41.66002 12.20001 11820 ft 208 kts 145°
2026-05-06 05:54 41.64912 12.21281 12218 ft 210 kts 145°
2026-05-06 05:54 41.63824 12.22555 12607 ft 210 kts 145°
2026-05-06 05:54 41.62715 12.23833 12972 ft 211 kts 146°
2026-05-06 05:54 41.61594 12.25114 13271 ft 213 kts 146°
2026-05-06 05:55 41.60459 12.26399 13595 ft 214 kts 146°
2026-05-06 05:55 41.59316 12.27685 13891 ft 215 kts 144°
2026-05-06 05:55 41.58516 12.29378 14148 ft 228 kts 106°
2026-05-06 05:55 41.58649 12.31512 14348 ft 235 kts 67°
2026-05-06 05:56 41.59601 12.33260 14517 ft 234 kts 43°
2026-05-06 05:56 41.60814 12.34729 14712 ft 235 kts 38°
2026-05-06 05:56 41.62072 12.36135 14915 ft 236 kts 38°
2026-05-06 05:56 41.63335 12.37552 15113 ft 237 kts 38°
2026-05-06 05:57 41.64559 12.38990 15302 ft 238 kts 40°
2026-05-06 05:57 41.65789 12.40502 15466 ft 240 kts 41°
2026-05-06 05:57 41.67015 12.42020 15665 ft 240 kts 41°
2026-05-06 05:57 41.68244 12.43546 15843 ft 241 kts 41°
2026-05-06 05:58 41.69474 12.45072 16038 ft 242 kts 41°
2026-05-06 05:58 41.70714 12.46609 16221 ft 243 kts 41°
2026-05-06 05:58 41.71956 12.48150 16390 ft 244 kts 41°
2026-05-06 05:58 41.73206 12.49701 16561 ft 245 kts 41°
2026-05-06 05:59 41.74459 12.51255 16754 ft 246 kts 41°
2026-05-06 05:59 41.75713 12.52815 16934 ft 246 kts 41°
2026-05-06 05:59 41.76975 12.54382 17109 ft 247 kts 41°
2026-05-06 05:59 41.78223 12.55931 17272 ft 248 kts 41°
2026-05-06 06:00 41.79490 12.57499 17463 ft 249 kts 39°
2026-05-06 06:00 41.80985 12.58565 17571 ft 242 kts 10°
2026-05-06 06:00 41.82642 12.58956 17703 ft 241 kts 359°
2026-05-06 06:00 41.84306 12.59029 17868 ft 239 kts 354°
2026-05-06 06:01 41.85981 12.58993 17965 ft 243 kts 353°
2026-05-06 06:01 41.87694 12.58952 17988 ft 249 kts 353°
2026-05-06 06:01 41.89445 12.58947 18009 ft 254 kts 355°
2026-05-06 06:01 41.91227 12.58985 18016 ft 258 kts 355°
2026-05-06 06:02 41.93039 12.59027 18014 ft 262 kts 355°
2026-05-06 06:02 41.94871 12.59070 18024 ft 265 kts 355°
2026-05-06 06:02 41.96728 12.59112 18023 ft 268 kts 355°
2026-05-06 06:02 41.98601 12.59151 18023 ft 270 kts 355°
2026-05-06 06:03 42.00484 12.59192 18022 ft 272 kts 355°
2026-05-06 06:03 42.02384 12.59236 18018 ft 274 kts 356°
2026-05-06 06:03 42.04292 12.59295 18015 ft 275 kts 356°
2026-05-06 06:03 42.06190 12.59350 18019 ft 276 kts 356°
2026-05-06 06:04 42.08111 12.59399 18012 ft 277 kts 355°
2026-05-06 06:04 42.10039 12.59446 18014 ft 277 kts 355°
2026-05-06 06:04 42.11972 12.59496 18019 ft 278 kts 356°
2026-05-06 06:04 42.13907 12.59546 18015 ft 278 kts 356°
2026-05-06 06:05 42.15843 12.59596 18010 ft 278 kts 356°
2026-05-06 06:05 42.17781 12.59646 18013 ft 278 kts 356°
2026-05-06 06:05 42.19713 12.59698 18013 ft 278 kts 356°
2026-05-06 06:05 42.21634 12.59745 18008 ft 278 kts 356°
2026-05-06 06:06 42.23584 12.59791 18014 ft 279 kts 356°
2026-05-06 06:06 42.25497 12.59593 18008 ft 271 kts 341°
2026-05-06 06:06 42.27259 12.58843 18008 ft 267 kts 333°
2026-05-06 06:06 42.28975 12.57881 18008 ft 266 kts 330°
2026-05-06 06:07 42.30680 12.56895 18008 ft 267 kts 331°
2026-05-06 06:07 42.32410 12.55938 18000 ft 269 kts 333°
2026-05-06 06:07 42.34137 12.55038 18000 ft 270 kts 333°
2026-05-06 06:07 42.35897 12.54125 18002 ft 270 kts 333°
2026-05-06 06:08 42.37651 12.53214 18000 ft 270 kts 333°
2026-05-06 06:08 42.39413 12.52296 17998 ft 271 kts 333°
2026-05-06 06:08 42.41171 12.51381 17997 ft 271 kts 333°
2026-05-06 06:08 42.42933 12.50462 17994 ft 271 kts 333°
2026-05-06 06:09 42.44696 12.49545 17993 ft 271 kts 333°
2026-05-06 06:09 42.46461 12.48624 17992 ft 271 kts 333°
2026-05-06 06:09 42.48219 12.47706 17992 ft 272 kts 333°
2026-05-06 06:09 42.49988 12.46783 17985 ft 272 kts 333°
2026-05-06 06:10 42.51752 12.45861 17994 ft 272 kts 333°
2026-05-06 06:10 42.53521 12.44938 17989 ft 271 kts 334°
2026-05-06 06:10 42.55362 12.44553 17997 ft 280 kts
2026-05-06 06:10 42.57199 12.45487 17995 ft 287 kts 32°
2026-05-06 06:11 42.58844 12.47043 17986 ft 288 kts 32°
2026-05-06 06:11 42.60556 12.48442 17982 ft 288 kts 25°
2026-05-06 06:11 42.62396 12.49518 17984 ft 285 kts 15°
2026-05-06 06:11 42.64287 12.50307 17974 ft 283 kts 12°
2026-05-06 06:12 42.66189 12.51020 17993 ft 283 kts 11°
2026-05-06 06:12 42.68064 12.51745 17995 ft 284 kts 13°
2026-05-06 06:12 42.69967 12.52544 17995 ft 285 kts 13°
2026-05-06 06:12 42.71864 12.53359 17984 ft 286 kts 13°
2026-05-06 06:13 42.73763 12.54172 17987 ft 286 kts 13°
2026-05-06 06:13 42.75660 12.54986 17982 ft 286 kts 13°
2026-05-06 06:13 42.77561 12.55802 17994 ft 287 kts 13°
2026-05-06 06:13 42.79469 12.56619 17990 ft 288 kts 13°
2026-05-06 06:14 42.81359 12.57430 17972 ft 288 kts 13°
2026-05-06 06:14 42.83284 12.58261 17982 ft 287 kts 13°
2026-05-06 06:14 42.85170 12.59073 17982 ft 286 kts 13°
2026-05-06 06:14 42.87067 12.59886 17997 ft 286 kts 13°
2026-05-06 06:15 42.88992 12.60719 17996 ft 287 kts 13°
2026-05-06 06:15 42.90879 12.61531 17982 ft 287 kts 13°
2026-05-06 06:15 42.92784 12.62351 17983 ft 286 kts 13°
2026-05-06 06:15 42.94680 12.63168 17991 ft 286 kts 13°
2026-05-06 06:16 42.96580 12.63989 17991 ft 286 kts 13°
2026-05-06 06:16 42.98481 12.64802 17986 ft 286 kts 13°
2026-05-06 06:16 43.00377 12.65620 17990 ft 286 kts 13°
2026-05-06 06:16 43.02274 12.66440 18004 ft 286 kts 13°
2026-05-06 06:17 43.04181 12.67265 18001 ft 287 kts 14°
2026-05-06 06:17 43.05918 12.68610 17981 ft 292 kts 38°
2026-05-06 06:17 43.07349 12.70595 17993 ft 294 kts 47°
2026-05-06 06:17 43.07801 12.71302 17995 ft 294 kts 49°
2026-05-06 06:18 43.08637 12.72647 17992 ft 295 kts 49°
2026-05-06 06:18 43.09972 12.74781 17979 ft 295 kts 48°
2026-05-06 06:18 43.11319 12.76848 17985 ft 294 kts 46°
2026-05-06 06:18 43.12718 12.78892 17986 ft 294 kts 45°
2026-05-06 06:19 43.14125 12.80948 17986 ft 294 kts 46°
2026-05-06 06:19 43.15519 12.83001 17983 ft 294 kts 46°
2026-05-06 06:19 43.16915 12.85061 17982 ft 295 kts 46°
2026-05-06 06:19 43.18299 12.87106 17973 ft 295 kts 46°
2026-05-06 06:20 43.19700 12.89171 17970 ft 295 kts 46°
2026-05-06 06:20 43.21096 12.91231 17971 ft 294 kts 46°
2026-05-06 06:20 43.22487 12.93285 17962 ft 294 kts 46°
2026-05-06 06:20 43.23878 12.95342 17963 ft 294 kts 46°
2026-05-06 06:21 43.25270 12.97399 17963 ft 294 kts 46°
2026-05-06 06:21 43.26666 12.99447 17971 ft 294 kts 46°
2026-05-06 06:21 43.28081 13.01539 17595 ft 300 kts 47°
2026-05-06 06:21 43.29502 13.03660 17204 ft 304 kts 47°
2026-05-06 06:22 43.30951 13.05804 16816 ft 307 kts 47°
2026-05-06 06:22 43.32414 13.07955 16407 ft 309 kts 47°
2026-05-06 06:22 43.33550 13.09619 16076 ft 309 kts 47°
2026-05-06 06:22 43.35029 13.11787 15686 ft 310 kts 47°
2026-05-06 06:23 43.36500 13.13953 15318 ft 310 kts 47°
2026-05-06 06:23 43.37955 13.16105 14942 ft 311 kts 48°
2026-05-06 06:23 43.39367 13.18197 14497 ft 313 kts 48°
2026-05-06 06:23 43.40847 13.20402 13977 ft 314 kts 49°
2026-05-06 06:24 43.42331 13.22613 13420 ft 315 kts 49°
2026-05-06 06:24 43.43812 13.24830 12843 ft 315 kts 49°
2026-05-06 06:24 43.45294 13.27049 12272 ft 314 kts 49°
2026-05-06 06:24 43.46769 13.29256 11713 ft 313 kts 49°
2026-05-06 06:25 43.48236 13.31461 11178 ft 310 kts 49°
2026-05-06 06:25 43.49677 13.33628 10664 ft 303 kts 49°
2026-05-06 06:25 43.52469 13.37817 9635 ft 291 kts 49°
2026-05-06 06:26 43.53831 13.39861 9093 ft 287 kts 49°
2026-05-06 06:26 43.55173 13.41876 8552 ft 283 kts 49°
2026-05-06 06:26 43.56498 13.43865 8007 ft 280 kts 50°
2026-05-06 06:26 43.57795 13.45817 7482 ft 277 kts 49°
2026-05-06 06:27 43.59098 13.47757 6978 ft 275 kts 49°
2026-05-06 06:27 43.60396 13.49673 6465 ft 273 kts 49°
2026-05-06 06:27 43.61698 13.51572 5942 ft 271 kts 49°
2026-05-06 06:27 43.62991 13.53460 5404 ft 269 kts 49°
2026-05-06 06:28 43.64273 13.55336 4883 ft 267 kts 49°
2026-05-06 06:28 43.65554 13.57183 4344 ft 265 kts 48°
2026-05-06 06:28 43.66831 13.59011 3816 ft 263 kts 48°
2026-05-06 06:28 43.68096 13.60828 3292 ft 260 kts 48°
2026-05-06 06:29 43.69281 13.62534 2863 ft 235 kts 49°
2026-05-06 06:29 43.70348 13.64047 2664 ft 205 kts 48°
2026-05-06 06:29 43.71290 13.65354 2570 ft 177 kts 43°
2026-05-06 06:29 43.72396 13.65867 2531 ft 175 kts 351°
2026-05-06 06:30 43.73530 13.65243 2515 ft 179 kts 332°
2026-05-06 06:30 43.74682 13.64466 2507 ft 188 kts 332°
2026-05-06 06:30 43.75831 13.63548 2495 ft 192 kts 323°
2026-05-06 06:30 43.76925 13.62439 2497 ft 196 kts 320°
2026-05-06 06:31 43.77867 13.61115 2498 ft 191 kts 292°
2026-05-06 06:31 43.78226 13.59406 2498 ft 186 kts 270°
2026-05-06 06:31 43.77853 13.57791 2503 ft 176 kts 225°
2026-05-06 06:31 43.76964 13.56682 2498 ft 173 kts 218°
2026-05-06 06:32 43.76051 13.55568 2495 ft 175 kts 218°
2026-05-06 06:32 43.75124 13.54472 2495 ft 175 kts 218°
2026-05-06 06:32 43.74189 13.53383 2499 ft 176 kts 217°
2026-05-06 06:32 43.73252 13.52275 2496 ft 177 kts 219°
2026-05-06 06:33 43.72657 13.51500 2498 ft 176 kts 222°
2026-05-06 06:33 43.71554 13.49904 2504 ft 170 kts 224°
2026-05-06 06:33 43.70736 13.48732 2339 ft 165 kts 223°
2026-05-06 06:33 43.69924 13.47616 2134 ft 165 kts 221°
2026-05-06 06:34 43.69370 13.46872 1981 ft 162 kts 221°
2026-05-06 06:34 43.68606 13.45827 1777 ft 147 kts 222°
2026-05-06 06:34 43.67953 13.44911 1602 ft 126 kts 221°
2026-05-06 06:34 43.67349 13.44083 1441 ft 121 kts 220°
2026-05-06 06:35 43.66757 13.43287 1273 ft 117 kts 221°
2026-05-06 06:35 43.66179 13.42493 1116 ft 116 kts 222°
2026-05-06 06:35 43.65607 13.41696 971 ft 118 kts 221°
2026-05-06 06:35 43.65020 13.40898 812 ft 118 kts 222°
2026-05-06 06:36 43.64431 13.40110 654 ft 118 kts 224°
2026-05-06 06:36 43.63864 13.39303 479 ft 120 kts 225°
2026-05-06 06:36 43.63263 13.38488 270 ft 122 kts 224°
2026-05-06 06:36 43.62662 13.37648 110 ft 120 kts 226°
2026-05-06 06:37 43.62105 13.36875 38 ft 103 kts 225°
2026-05-06 06:37 43.61787 13.36443 43 ft 51 kts 226°
2026-05-06 06:37 43.61560 13.36135 45 ft 41 kts 224°
2026-05-06 06:37 43.61377 13.35882 44 ft 33 kts 226°
2026-05-06 06:38 43.61209 13.35650 49 ft 29 kts 225°
2026-05-06 06:38 43.61071 13.35560 50 ft 17 kts 176°
2026-05-06 06:38 43.60960 13.35568 46 ft 15 kts 178°
2026-05-06 06:38 43.60887 13.35527 50 ft 10 kts 227°
2026-05-06 06:39 43.60842 13.35464 50 ft 5 kts 224°
2026-05-06 06:39 43.60818 13.35473 51 ft 6 kts 143°
2026-05-06 06:39 43.60792 13.35504 51 ft 4 kts 150°
2026-05-06 06:39 43.60785 13.35506 51 ft 0 kts 163°